W1JAB Weather Reports


time (UTC)temp
F
wind
direction
speed
knots
gust
knots
rain 1hr
in
rain 24hr
in
rain mn
in
humidity
%
barometer
mb
20260507223839 61 311 4.3 9.6 0.00 0.09 0.01 33 1006.5
20260507223357 61 331 5.2 9.6 0.00 0.09 0.01 33 1006.4
20260507222855 61 267 6.1 8.7 0.00 0.09 0.01 32 1006.2
20260507222332 62 298 3.5 7.8 0.00 0.09 0.01 32 1006.2
20260507221830 61 292 5.2 13.0 0.00 0.09 0.01 32 1006.1
20260507221328 62 309 7.0 13.0 0.00 0.09 0.01 30 1005.9
20260507220826 62 300 6.1 12.2 0.00 0.09 0.01 32 1006.0
20260507220321 62 287 7.8 12.2 0.00 0.09 0.01 31 1006.0
20260507215906 62 303 7.8 12.2 0.00 0.09 0.01 32 1005.9
20260507215321 62 306 3.5 7.8 0.00 0.12 0.01 34 1006.0
20260507214906 62 313 3.5 9.6 0.00 0.12 0.01 34 1005.9
20260507214408 62 285 6.1 13.9 0.00 0.12 0.01 32 1005.9
20260507213911 62 280 6.1 14.8 0.00 0.12 0.01 32 1005.8
20260507213325 62 311 8.7 14.8 0.00 0.12 0.01 32 1005.8
20260507212824 62 273 4.3 13.9 0.00 0.12 0.01 33 1005.9
20260507212404 62 306 7.0 13.9 0.00 0.12 0.01 33 1005.8
20260507211817 63 300 5.2 16.5 0.00 0.12 0.01 32 1005.8
20260507211317 63 318 6.1 16.5 0.00 0.12 0.01 33 1005.9
20260507210833 63 321 3.5 9.6 0.00 0.12 0.01 33 1005.9
20260507210418 62 298 5.2 12.2 0.00 0.12 0.01 33 1005.9
20260507205834 63 260 5.2 12.2 0.00 0.12 0.01 32 1005.8
20260507205352 63 326 5.2 11.3 0.00 0.18 0.01 34 1005.8
20260507204827 63 69 3.5 8.7 0.00 0.18 0.01 35 1005.5
20260507204412 63 257 4.3 12.2 0.00 0.18 0.01 32 1005.6
20260507203827 64 295 3.5 11.3 0.00 0.18 0.01 35 1005.8
20260507203323 63 280 5.2 10.4 0.00 0.18 0.01 33 1005.7
20260507202841 63 289 5.2 10.4 0.00 0.18 0.01 35 1005.7
20260507202400 64 290 3.5 12.2 0.00 0.18 0.01 34 1005.7
20260507201835 63 330 4.3 12.2 0.00 0.18 0.01 33 1005.8
20260507201353 63 281 3.5 9.6 0.00 0.18 0.01 36 1005.8
20260507200831 63 276 6.1 8.7 0.00 0.18 0.01 35 1005.9
20260507200410 63 312 3.5 9.6 0.00 0.18 0.01 36 1005.8
20260507195823 63 284 5.2 9.6 0.00 0.18 0.01 34 1005.8
20260507195340 64 289 4.3 9.6 0.00 0.22 0.01 35 1005.9
20260507194816 63 283 3.5 11.3 0.00 0.22 0.01 34 1005.9
20260507194334 62 296 4.3 11.3 0.00 0.22 0.01 33 1005.9
20260507193852 63 286 5.2 10.4 0.00 0.22 0.01 36 1005.9
20260507193348 64 287 2.6 8.7 0.00 0.22 0.01 35 1006.0
20260507192822 65 322 1.7 12.2 0.00 0.22 0.01 36 1006.1
20260507192321 64 300 3.5 12.2 0.00 0.22 0.01 36 1006.2
20260507191841 64 280 4.3 12.2 0.00 0.22 0.01 35 1006.2
20260507191338 65 264 4.3 7.8 0.00 0.22 0.01 36 1006.1
20260507190835 64 329 0.9 8.7 0.00 0.22 0.01 37 1006.2
20260507190330 64 338 2.6 13.0 0.00 0.22 0.01 36 1006.3
20260507185828 64 319 6.1 13.9 0.00 0.22 0.01 37 1006.3
20260507185413 63 319 6.1 13.9 0.00 0.22 0.01 36 1006.4
20260507184828 63 290 4.3 12.2 0.00 0.22 0.01 36 1006.4
20260507184410 63 234 7.0 12.2 0.00 0.22 0.01 35 1006.4
20260507183842 63 274 6.1 14.8 0.00 0.22 0.01 35 1006.4
20260507183319 63 278 7.8 14.8 0.00 0.22 0.01 34 1006.5
20260507182817 63 294 8.7 14.8 0.00 0.22 0.01 35 1006.4
20260507182334 63 310 7.0 13.0 0.00 0.22 0.01 35 1006.4
20260507181830 64 263 5.2 13.0 0.00 0.22 0.01 36 1006.4
20260507181327 63 298 2.6 12.2 0.00 0.22 0.01 37 1006.4
20260507180912 63 309 7.0 12.2 0.00 0.22 0.01 34 1006.6
20260507180323 63 278 6.1 14.8 0.00 0.22 0.01 35 1006.5
20260507175840 63 324 7.0 14.8 0.00 0.22 0.01 35 1006.5
20260507175405 63 260 8.7 13.9 0.00 0.22 0.01 35 1006.4
20260507174820 64 319 4.3 11.3 0.00 0.22 0.01 38 1006.2
20260507174335 63 287 6.1 12.2 0.00 0.22 0.01 37 1006.4
20260507173852 63 271 5.2 12.2 0.00 0.22 0.01 37 1006.3
20260507173417 63 319 2.6 10.4 0.00 0.22 0.01 41 1006.2
20260507172918 62 294 4.3 17.4 0.00 0.22 0.01 38 1006.5
20260507172350 63 309 9.6 17.4 0.00 0.22 0.01 34 1006.6
20260507171846 63 337 2.6 11.3 0.00 0.22 0.01 40 1006.4
20260507171322 62 316 5.2 10.4 0.00 0.22 0.01 38 1006.6
20260507170820 62 300 4.3 15.6 0.00 0.22 0.01 38 1006.8
20260507170423 62 283 7.0 15.6 0.00 0.22 0.01 35 1006.8
20260507165858 63 306 7.0 12.2 0.00 0.22 0.01 39 1006.8
20260507165332 62 315 4.3 9.6 0.00 0.22 0.01 43 1006.7
20260507164849 62 281 3.5 12.2 0.00 0.22 0.01 44 1006.9
20260507164326 61 294 5.2 11.3 0.00 0.22 0.01 50 1006.8
20260507163823 62 261 4.3 9.6 0.00 0.22 0.01 49 1006.9
20260507163408 61 267 5.2 8.7 0.00 0.22 0.01 50 1006.9
20260507162821 60 275 3.5 11.3 0.00 0.22 0.01 54 1007.0
20260507162339 60 238 6.1 11.3 0.00 0.22 0.01 54 1007.1
20260507161856 61 347 2.6 9.6 0.00 0.22 0.01 54 1007.0
20260507161354 61 270 3.5 11.3 0.00 0.22 0.01 55 1007.1
20260507160847 61 294 5.2 9.6 0.00 0.22 0.01 57 1007.1
20260507160321 60 327 2.6 9.6 0.00 0.22 0.01 56 1007.1
20260507155838 60 290 4.3 7.8 0.00 0.22 0.01 54 1007.2
20260507155335 60 289 2.6 7.0 0.00 0.22 0.01 59 1007.2
20260507154855 59 269 3.5 8.7 0.00 0.22 0.01 56 1007.4
20260507154326 60 290 4.3 10.4 0.00 0.22 0.01 54 1007.4
20260507153910 60 309 6.1 10.4 0.00 0.22 0.01 54 1007.5
20260507153345 59 314 3.5 10.4 0.00 0.22 0.01 57 1007.5
20260507152822 59 305 3.5 10.4 0.00 0.22 0.01 58 1007.7
20260507152407 59 290 6.1 10.4 0.00 0.22 0.01 55 1007.7
20260507151841 59 310 5.2 8.7 0.00 0.22 0.01 53 1007.7
20260507151358 59 319 5.2 8.7 0.00 0.22 0.01 55 1007.8
20260507150853 59 301 3.5 10.4 0.01 0.22 0.01 55 1007.7
20260507150325 58 315 3.5 10.4 0.01 0.22 0.01 57 1007.9
20260507145906 58 311 6.1 9.6 0.01 0.22 0.01 55 1008.0
20260507145321 58 215 1.7 12.2 0.01 0.22 0.01 57 1007.9
20260507144839 58 284 6.1 12.2 0.01 0.22 0.01 55 1008.1
20260507144355 59 329 3.5 13.0 0.01 0.22 0.01 56 1007.9
20260507143828 59 321 6.1 10.4 0.01 0.22 0.01 55 1008.0
20260507143410 59 309 6.1 8.7 0.01 0.22 0.01 54 1008.0
20260507142825 59 257 4.3 8.7 0.01 0.22 0.01 56 1008.0
20260507142323 59 305 4.3 8.7 0.01 0.22 0.01 56 1007.9
20260507141821 58 325 4.3 8.7 0.01 0.22 0.01 58 1007.8
20260507141338 59 302 3.5 8.7 0.00 0.21 0.00 59 1007.7
20260507140900 58 309 4.3 8.7 0.00 0.21 0.00 59 1007.8
20260507140353 58 303 1.7 8.7 0.00 0.21 0.00 59 1007.6
20260507135917 58 317 4.3 7.8 0.00 0.21 0.00 58 1007.8
20260507135351 58 288 2.6 7.0 0.00 0.21 0.00 59 1007.8
20260507134827 57 302 3.5 7.0 0.00 0.21 0.00 60 1007.8
20260507134340 57 309 1.7 4.3 0.00 0.21 0.00 61 1007.9
20260507133924 57 347 1.7 7.0 0.00 0.21 0.00 58 1008.0
20260507133358 57 318 2.6 5.2 0.00 0.21 0.00 60 1008.1
20260507132833 56 311 3.5 5.2 0.00 0.21 0.00 60 1008.3
20260507132351 56 329 1.7 4.3 0.00 0.21 0.00 63 1008.3
20260507131914 56 323 1.7 6.1 0.00 0.21 0.00 63 1008.4
20260507131348 55 291 2.6 7.0 0.00 0.21 0.00 63 1008.4
20260507130845 55 298 1.7 3.5 0.00 0.21 0.00 64 1008.4
20260507130338 54 294 0.9 3.5 0.00 0.21 0.00 65 1008.5
20260507125835 54 260 0.9 4.3 0.00 0.21 0.00 66 1008.6
20260507125333 54 276 1.7 7.0 0.00 0.21 0.00 66 1008.5
20260507124914 54 310 1.7 6.1 0.00 0.21 0.00 66 1008.6
20260507124350 53 309 1.7 8.7 0.00 0.21 0.00 66 1008.6
20260507123913 53 282 1.7 4.3 0.00 0.21 0.00 68 1008.6
20260507123327 52 296 1.7 4.3 0.00 0.21 0.00 69 1008.6
20260507122825 52 303 2.6 6.1 0.00 0.21 0.00 71 1008.6
20260507122410 52 299 3.5 6.1 0.00 0.21 0.00 71 1008.8
20260507121824 52 269 1.7 4.3 0.00 0.21 0.00 72 1008.8
20260507121321 51 294 0.9 5.2 0.00 0.21 0.00 74 1008.7
20260507120818 51 309 1.7 4.3 0.00 0.21 0.00 75 1008.7
20260507120352 50 266 1.7 4.3 0.00 0.21 0.00 76 1008.7
20260507115848 50 308 2.6 6.1 0.00 0.21 0.00 76 1008.6
20260507115411 50 234 2.6 4.3 0.00 0.21 0.00 78 1008.8
20260507114846 50 313 0.0 0.9 0.00 0.21 0.00 80 1008.7
20260507114322 49 311 0.0 0.9 0.00 0.21 0.00 80 1008.7
20260507113820 49 309 0.0 0.0 0.00 0.21 0.00 80 1008.4
20260507113333 49 310 0.0 0.0 0.00 0.21 0.00 80 1008.5
20260507112851 49 310 0.0 1.7 0.00 0.21 0.00 80 1008.4
20260507112327 49 309 0.0 1.7 0.00 0.21 0.00 80 1008.5
20260507111844 49 309 0.0 2.6 0.00 0.21 0.00 80 1008.6
20260507111320 49 310 0.9 2.6 0.00 0.21 0.00 81 1008.7
20260507110839 48 311 0.9 2.6 0.00 0.21 0.00 81 1008.7
20260507110353 48 311 0.0 0.9 0.00 0.21 0.00 82 1008.4
20260507105918 48 311 0.0 2.6 0.00 0.21 0.00 83 1008.5
20260507105353 48 311 0.0 2.6 0.00 0.21 0.00 83 1008.1
20260507104918 48 308 0.0 7.0 0.00 0.21 0.00 83 1008.3
20260507104334 48 308 0.9 7.0 0.00 0.21 0.00 84 1008.1
20260507103851 48 12 0.0 2.6 0.00 0.21 0.00 84 1008.2
20260507103410 48 12 0.9 2.6 0.00 0.21 0.00 84 1008.0
20260507102846 48 330 0.9 2.6 0.00 0.21 0.00 84 1007.9
20260507102321 48 332 0.0 0.0 0.00 0.21 0.00 84 1008.2
20260507101818 48 332 0.0 0.0 0.00 0.21 0.00 84 1008.0
20260507101316 48 332 0.0 0.9 0.00 0.21 0.00 84 1008.2
20260507100834 48 332 0.0 1.7 0.00 0.21 0.00 84 1008.2
20260507100329 48 332 0.0 3.5 0.00 0.21 0.00 84 1008.1
20260507095848 48 327 0.9 3.5 0.00 0.21 0.00 84 1008.5
20260507095324 48 298 0.9 4.3 0.00 0.21 0.00 84 1007.9
20260507094821 48 298 0.9 4.3 0.00 0.21 0.00 84 1008.1
20260507094319 48 313 0.9 2.6 0.00 0.21 0.00 85 1008.3
20260507093902 48 313 0.9 4.3 0.00 0.21 0.00 85 1008.2
20260507093359 48 313 1.7 4.3 0.00 0.21 0.00 85 1007.9
20260507092816 48 325 1.7 3.5 0.00 0.21 0.00 85 1008.0
20260507092333 48 303 0.9 5.2 0.00 0.21 0.00 85 1008.0
20260507091828 49 326 1.7 7.0 0.00 0.21 0.00 85 1008.0
20260507091346 49 330 2.6 4.3 0.00 0.21 0.00 85 1008.1
20260507090822 49 287 1.7 5.2 0.00 0.21 0.00 85 1007.6
20260507090337 49 307 3.5 6.1 0.00 0.21 0.00 85 1007.8
20260507085855 49 289 1.7 6.1 0.00 0.21 0.00 85 1007.6
20260507085350 49 321 2.6 6.1 0.00 0.21 0.00 84 1007.8
20260507084847 49 295 1.7 3.5 0.00 0.21 0.00 84 1007.9
20260507084323 49 299 1.7 3.5 0.00 0.21 0.00 84 1007.3
20260507083820 49 298 1.7 4.3 0.00 0.21 0.00 84 1007.3
20260507083316 50 330 0.9 4.3 0.00 0.21 0.00 83 1007.3
20260507082917 50 298 2.6 7.0 0.00 0.21 0.00 83 1007.6
20260507082353 50 336 2.6 8.7 0.00 0.21 0.00 82 1007.6
20260507081849 50 308 5.2 8.7 0.00 0.21 0.00 82 1007.3
20260507081325 50 290 3.5 7.0 0.00 0.21 0.00 82 1007.1
20260507080821 50 288 1.7 7.8 0.00 0.21 0.00 81 1007.3
20260507080358 51 321 3.5 8.7 0.00 0.21 0.00 81 1007.6
20260507075835 51 296 1.7 7.8 0.00 0.21 0.00 81 1007.6
20260507075333 51 327 3.5 7.8 0.00 0.21 0.00 81 1007.7
20260507074831 51 281 3.5 8.7 0.00 0.21 0.00 82 1007.6
20260507074348 51 307 5.2 8.7 0.00 0.21 0.00 81 1007.3
20260507073845 51 309 1.7 7.8 0.00 0.21 0.00 82 1007.3
20260507073320 51 320 2.6 10.4 0.00 0.21 0.00 82 1007.3
20260507072905 51 304 6.1 10.4 0.00 0.21 0.00 82 1007.2
20260507072322 51 281 3.5 8.7 0.00 0.21 0.00 82 1007.1
20260507071817 51 297 3.5 9.6 0.00 0.21 0.00 82 1007.2
20260507071358 51 327 3.5 9.6 0.00 0.21 0.00 82 1007.2
20260507070835 51 294 3.5 9.6 0.00 0.21 0.00 83 1007.3
20260507070328 51 292 5.2 9.6 0.00 0.21 0.00 83 1007.3
20260507065911 52 280 3.5 6.1 0.00 0.21 0.00 83 1007.0
20260507065413 52 304 1.7 4.3 0.00 0.21 0.00 84 1006.8
20260507064827 52 339 2.6 6.1 0.00 0.21 0.00 84 1007.2
20260507064325 52 272 3.5 6.1 0.00 0.21 0.00 84 1007.0
20260507063842 52 275 2.6 6.1 0.00 0.21 0.00 83 1006.7
20260507063319 52 312 2.6 7.8 0.00 0.21 0.00 83 1006.7
20260507062901 52 296 2.6 7.0 0.00 0.21 0.00 83 1006.7
20260507062403 53 310 1.7 4.3 0.00 0.21 0.00 83 1006.7
20260507061901 53 316 1.7 7.8 0.00 0.21 0.00 82 1006.7
20260507061358 53 305 3.5 7.8 0.00 0.21 0.00 82 1006.6
20260507060851 53 300 2.6 7.8 0.00 0.21 0.00 82 1006.8
20260507060323 53 301 4.3 7.8 0.00 0.21 0.00 82 1006.8
20260507055816 53 306 1.7 7.8 0.00 0.21 0.00 82 1006.8
20260507055333 53 296 2.6 7.8 0.00 0.21 0.00 82 1007.1
20260507054852 53 288 3.5 10.4 0.00 0.21 0.00 82 1007.2
20260507054414 53 313 3.5 8.7 0.00 0.21 0.00 82 1007.3
20260507053849 53 311 2.6 8.7 0.00 0.21 0.00 81 1007.2
20260507053323 53 296 4.3 8.7 0.00 0.21 0.00 82 1007.0
20260507052820 53 295 5.2 8.7 0.00 0.21 0.00 82 1007.2
20260507052318 53 261 2.6 7.8 0.00 0.21 0.00 82 1007.4
20260507051834 53 275 4.3 7.8 0.00 0.21 0.00 82 1007.3
20260507051352 53 336 2.6 8.7 0.00 0.21 0.00 82 1007.1
20260507050828 53 321 1.7 8.7 0.00 0.21 0.00 82 1006.9
20260507050325 53 313 3.5 7.0 0.00 0.21 0.00 83 1006.8
20260507045820 53 320 3.5 10.4 0.00 0.21 0.00 83 1007.1
20260507045338 54 310 3.5 10.4 0.00 0.21 0.00 83 1006.9
20260507044834 54 303 4.3 7.8 0.00 0.21 0.00 83 1006.9
20260507044417 54 282 3.5 9.6 0.00 0.21 0.00 84 1006.8
20260507043851 54 301 5.2 11.3 0.00 0.21 0.00 84 1006.8
20260507043345 54 312 4.3 11.3 0.00 0.21 0.00 85 1007.0
20260507042841 54 286 5.2 10.4 0.00 0.21 0.00 85 1007.0
20260507042318 55 267 4.3 9.6 0.00 0.21 0.00 86 1007.3
20260507041901 55 315 5.2 9.6 0.00 0.21 0.00 86 1007.2
20260507041358 55 290 4.3 7.8 0.00 0.21 0.00 87 1007.1
20260507040901 55 307 3.5 7.0 0.00 0.21 0.00 87 1006.8
20260507040422 55 325 2.6 10.4 0.00 0.21 0.00 87 1006.7
20260507035917 56 294 3.5 10.4 0.00 0.21 0.00 88 1006.6
20260507035333 56 293 3.5 9.6 0.00 0.21 0.21 88 1006.6
20260507034911 57 309 5.2 9.6 0.00 0.21 0.21 88 1006.5
20260507034414 57 270 3.5 9.6 0.00 0.21 0.21 89 1006.3
20260507033828 58 301 3.5 8.7 0.00 0.21 0.21 89 1006.3
20260507033413 58 318 2.6 7.0 0.00 0.21 0.21 89 1006.2
20260507032829 58 300 2.6 11.3 0.00 0.21 0.21 89 1006.1
20260507032327 58 302 6.1 17.4 0.00 0.21 0.21 89 1006.2
20260507031909 58 305 7.0 17.4 0.00 0.21 0.21 89 1006.1
20260507031324 59 319 7.8 12.2 0.00 0.21 0.21 89 1006.2
20260507030841 60 325 3.5 7.8 0.00 0.21 0.21 90 1005.9
20260507030338 60 253 1.7 7.8 0.00 0.21 0.21 90 1005.7
20260507025832 60 226 2.6 7.0 0.00 0.21 0.21 90 1005.7
20260507025329 60 195 2.6 7.0 0.00 0.21 0.21 90 1005.7
20260507024828 60 185 1.7 6.1 0.00 0.21 0.21 90 1005.7
20260507024345 60 262 1.7 7.0 0.00 0.21 0.21 90 1005.7
20260507023821 60 174 2.6 7.0 0.00 0.21 0.21 90 1005.7
20260507023405 60 211 2.6 7.8 0.00 0.21 0.21 90 1005.6
20260507022822 60 186 4.3 7.8 0.00 0.21 0.21 90 1005.5
20260507022335 60 173 2.6 7.0 0.00 0.21 0.21 90 1005.5
20260507021853 60 188 2.6 7.8 0.00 0.21 0.21 90 1005.7
20260507021330 60 195 4.3 7.8 0.00 0.21 0.21 90 1005.5
20260507020847 60 217 5.2 7.8 0.00 0.21 0.21 90 1005.7
20260507020341 60 170 2.6 7.0 0.00 0.21 0.21 90 1005.7
20260507015817 60 192 4.3 8.7 0.00 0.21 0.21 90 1005.7
20260507015357 60 271 3.5 8.7 0.01 0.21 0.21 90 1005.8
20260507014853 60 253 2.6 7.0 0.01 0.21 0.21 90 1006.0
20260507014352 60 182 2.6 8.7 0.01 0.21 0.21 90 1005.9
20260507013849 60 206 3.5 6.1 0.01 0.21 0.21 90 1005.9
20260507013325 60 172 4.3 7.8 0.01 0.21 0.21 90 1005.9
20260507012823 60 161 2.6 7.0 0.01 0.21 0.21 90 1005.9
20260507012339 60 190 3.5 7.0 0.01 0.21 0.21 90 1005.9
20260507011857 60 233 2.6 7.8 0.01 0.21 0.21 90 1006.0
20260507011332 60 209 3.5 8.7 0.01 0.21 0.21 90 1005.9
20260507010829 60 197 5.2 10.4 0.01 0.21 0.21 90 1006.1
20260507010322 60 177 5.2 8.7 0.01 0.21 0.21 90 1006.0
20260507005819 60 192 5.2 8.7 0.01 0.21 0.21 90 1006.0
20260507005317 60 176 2.6 8.7 0.00 0.20 0.20 90 1006.0
20260507004833 60 232 4.3 7.0 0.00 0.20 0.20 90 1005.8
20260507004330 60 195 3.5 7.8 0.00 0.20 0.20 90 1005.9
20260507003827 60 223 3.5 8.7 0.00 0.20 0.20 90 1005.9
20260507003324 60 165 3.5 9.6 0.01 0.20 0.20 90 1005.9
20260507002822 60 167 4.3 8.7 0.02 0.20 0.20 90 1005.8
20260507002319 60 195 4.3 8.7 0.03 0.20 0.20 90 1005.7
20260507001839 60 207 4.3 8.7 0.03 0.20 0.20 90 1005.7
20260507001358 60 197 5.2 8.7 0.03 0.20 0.20 90 1005.8
20260507000901 60 193 5.2 8.7 0.03 0.20 0.20 90 1005.7
20260507000335 60 178 5.2 8.7 0.04 0.20 0.20 90 1005.8
20260506235831 60 191 4.3 10.4 0.04 0.20 0.20 90 1005.8
20260506235417 60 177 4.3 10.4 0.04 0.20 0.20 90 1005.6
20260506234831 60 177 4.3 7.8 0.04 0.20 0.20 90 1005.7
20260506234348 60 209 4.3 7.8 0.04 0.20 0.20 90 1005.6
20260506233846 60 190 5.2 9.6 0.05 0.20 0.20 90 1005.8
20260506233321 60 157 6.1 9.6 0.04 0.19 0.19 90 1005.7
20260506232905 60 161 4.3 13.0 0.03 0.18 0.18 90 1005.7
20260506232318 60 191 7.0 13.0 0.02 0.17 0.17 90 1005.7
20260506231901 60 170 7.8 9.6 0.02 0.17 0.17 90 1005.8
20260506231419 60 129 7.0 8.7 0.03 0.17 0.17 90 1005.8
20260506230854 60 176 6.1 8.7 0.03 0.17 0.17 90 1006.0
20260506230327 60 185 5.2 9.6 0.02 0.16 0.16 90 1005.9
20260506225844 60 170 4.3 9.6 0.03 0.16 0.16 89 1005.9
20260506225408 60 180 5.2 9.6 0.03 0.16 0.16 90 1005.8
20260506224840 60 176 6.1 8.7 0.03 0.16 0.16 90 1006.0
20260506224316 61 168 6.1 9.6 0.03 0.16 0.16 89 1006.0